| time (UTC) | temp F | wind direction | speed knots | gust knots | rain 1hr in | rain 24hr in | rain mn in | humidity % | barometer mb |
| 20260505211854 | 86 | 11 | 0.9 | 0.9 | 0.00 | 0.00 | 0.00 | 68 | 1008.1 |
| 20260505211351 | 86 | 97 | 1.7 | 3.5 | 0.00 | 0.00 | 0.00 | 68 | 1008.2 |
| 20260505210848 | 86 | 91 | 0.9 | 3.5 | 0.00 | 0.00 | 0.00 | 69 | 1008.5 |
| 20260505210345 | 85 | 79 | 0.9 | 5.2 | 0.00 | 0.00 | 0.00 | 72 | 1008.5 |
| 20260505205841 | 85 | 81 | 1.7 | 2.6 | 0.00 | 0.00 | 0.00 | 71 | 1008.8 |
| 20260505205340 | 85 | 72 | 0.9 | 2.6 | 0.00 | 0.00 | 0.00 | 71 | 1008.7 |
| 20260505204837 | 86 | 86 | 1.7 | 2.6 | 0.00 | 0.00 | 0.00 | 69 | 1008.8 |
| 20260505204334 | 88 | 225 | 3.5 | 3.5 | 0.00 | 0.00 | 0.00 | 67 | 1008.8 |
| 20260505203831 | 87 | 12 | 0.9 | 0.9 | 0.00 | 0.00 | 0.00 | 69 | 1009.0 |
| 20260505203328 | 86 | 251 | 0.9 | 1.7 | 0.00 | 0.00 | 0.00 | 70 | 1008.9 |
| 20260505202824 | 85 | 67 | 0.0 | 2.6 | 0.00 | 0.00 | 0.00 | 72 | 1009.1 |
| 20260505202320 | 85 | 71 | 0.0 | 1.7 | 0.00 | 0.00 | 0.00 | 71 | 1009.1 |
| 20260505201817 | 85 | 225 | 0.9 | 1.7 | 0.00 | 0.00 | 0.00 | 71 | 1009.1 |
| 20260505201315 | 86 | 77 | 0.9 | 3.5 | 0.00 | 0.00 | 0.00 | 70 | 1009.2 |
| 20260505200813 | 87 | 94 | 0.9 | 1.7 | 0.00 | 0.00 | 0.00 | 68 | 1009.4 |
| 20260505200309 | 88 | 72 | 0.9 | 0.9 | 0.00 | 0.00 | 0.00 | 69 | 1009.4 |
| 20260505195804 | 87 | 53 | 0.9 | 1.7 | 0.00 | 0.00 | 0.00 | 68 | 1009.5 |
| 20260505195305 | 86 | 78 | 0.9 | 6.1 | 0.00 | 0.00 | 0.00 | 69 | 1009.4 |
| 20260505194759 | 87 | 83 | 1.7 | 1.7 | 0.00 | 0.00 | 0.00 | 68 | 1009.6 |
| 20260505194256 | 86 | 168 | 1.7 | 2.6 | 0.00 | 0.00 | 0.00 | 71 | 1009.7 |
| 20260505193756 | 86 | 181 | 0.9 | 2.6 | 0.00 | 0.00 | 0.00 | 70 | 1009.8 |
| 20260505193254 | 85 | 49 | 0.9 | 3.5 | 0.00 | 0.00 | 0.00 | 71 | 1009.7 |
| 20260505192752 | 84 | 89 | 0.9 | 1.7 | 0.00 | 0.00 | 0.00 | 72 | 1009.9 |
| 20260505192250 | 85 | 65 | 0.0 | 1.7 | 0.00 | 0.00 | 0.00 | 72 | 1009.9 |
| 20260505191748 | 84 | 89 | 1.7 | 2.6 | 0.00 | 0.00 | 0.00 | 72 | 1009.9 |
| 20260505191246 | 84 | 100 | 0.9 | 1.7 | 0.00 | 0.00 | 0.00 | 74 | 1010.1 |
| 20260505190742 | 83 | 110 | 0.9 | 2.6 | 0.00 | 0.00 | 0.00 | 74 | 1010.0 |
| 20260505190237 | 84 | 29 | 1.7 | 3.5 | 0.00 | 0.00 | 0.00 | 73 | 1009.9 |
| 20260505185733 | 84 | 80 | 0.9 | 2.6 | 0.00 | 0.00 | 0.00 | 73 | 1010.0 |
| 20260505185230 | 84 | 134 | 1.7 | 2.6 | 0.00 | 0.00 | 0.00 | 73 | 1009.9 |
| 20260505184726 | 84 | 100 | 0.9 | 3.5 | 0.00 | 0.00 | 0.00 | 73 | 1010.0 |
| 20260505184224 | 83 | 19 | 0.9 | 1.7 | 0.00 | 0.00 | 0.00 | 74 | 1010.0 |
| 20260505183720 | 84 | 18 | 0.0 | 0.9 | 0.00 | 0.00 | 0.00 | 73 | 1010.0 |
| 20260505183218 | 84 | 304 | 1.7 | 2.6 | 0.00 | 0.00 | 0.00 | 71 | 1009.9 |
| 20260505182714 | 85 | 72 | 0.9 | 1.7 | 0.00 | 0.00 | 0.00 | 71 | 1010.0 |
| 20260505182211 | 84 | 223 | 0.9 | 3.5 | 0.00 | 0.00 | 0.00 | 73 | 1009.9 |
| 20260505181707 | 84 | 41 | 0.9 | 1.7 | 0.00 | 0.00 | 0.00 | 72 | 1010.1 |
| 20260505181205 | 84 | 76 | 1.7 | 7.8 | 0.00 | 0.00 | 0.00 | 71 | 1010.2 |
| 20260505180701 | 82 | 18 | 0.9 | 7.0 | 0.00 | 0.00 | 0.00 | 74 | 1010.1 |
| 20260505180158 | 83 | 292 | 1.7 | 3.5 | 0.00 | 0.00 | 0.00 | 73 | 1010.0 |
| 20260505175654 | 83 | 113 | 3.5 | 5.2 | 0.00 | 0.00 | 0.00 | 74 | 1010.3 |
| 20260505175151 | 83 | 89 | 0.0 | 1.7 | 0.00 | 0.00 | 0.00 | 74 | 1010.2 |
| 20260505174647 | 82 | 75 | 0.9 | 2.6 | 0.00 | 0.00 | 0.00 | 76 | 1010.3 |
| 20260505174143 | 82 | 297 | 0.9 | 2.6 | 0.00 | 0.00 | 0.00 | 77 | 1010.4 |
| 20260505173640 | 81 | 129 | 1.7 | 1.7 | 0.00 | 0.00 | 0.00 | 77 | 1010.4 |
| 20260505173137 | 82 | 108 | 0.9 | 1.7 | 0.00 | 0.00 | 0.00 | 77 | 1010.4 |
| 20260505172635 | 81 | 34 | 0.9 | 1.7 | 0.00 | 0.00 | 0.00 | 78 | 1010.7 |
| 20260505172131 | 81 | 318 | 2.6 | 3.5 | 0.00 | 0.00 | 0.00 | 77 | 1010.5 |
| 20260505171626 | 81 | 119 | 0.9 | 2.6 | 0.00 | 0.00 | 0.00 | 79 | 1010.6 |
| 20260505171123 | 80 | 83 | 1.7 | 6.1 | 0.00 | 0.00 | 0.00 | 80 | 1010.7 |
| 20260505170621 | 81 | 129 | 1.7 | 2.6 | 0.00 | 0.00 | 0.00 | 79 | 1010.7 |
| 20260505170117 | 81 | 66 | 0.0 | 1.7 | 0.00 | 0.00 | 0.00 | 79 | 1010.8 |
| 20260505165611 | 81 | 93 | 0.0 | 2.6 | 0.00 | 0.00 | 0.00 | 80 | 1010.6 |
| 20260505165108 | 80 | 71 | 0.9 | 1.7 | 0.00 | 0.00 | 0.00 | 81 | 1010.9 |
| 20260505164604 | 79 | 54 | 0.0 | 1.7 | 0.00 | 0.00 | 0.00 | 84 | 1010.5 |
| 20260505164102 | 78 | 73 | 0.0 | 2.6 | 0.00 | 0.00 | 0.00 | 84 | 1010.7 |
| 20260505163600 | 78 | 93 | 0.0 | 2.6 | 0.00 | 0.00 | 0.00 | 83 | 1010.9 |
| 20260505163057 | 79 | 83 | 1.7 | 3.5 | 0.00 | 0.00 | 0.00 | 83 | 1010.9 |
| 20260505162555 | 78 | 77 | 0.0 | 1.7 | 0.00 | 0.00 | 0.00 | 84 | 1010.9 |
| 20260505162052 | 78 | 86 | 0.9 | 2.6 | 0.00 | 0.00 | 0.00 | 84 | 1011.1 |
| 20260505161549 | 77 | 74 | 0.0 | 0.9 | 0.00 | 0.00 | 0.00 | 85 | 1010.9 |
| 20260505161047 | 77 | 99 | 0.0 | 0.9 | 0.00 | 0.00 | 0.00 | 85 | 1011.0 |
| 20260505160544 | 77 | 1 | 0.9 | 2.6 | 0.00 | 0.00 | 0.00 | 85 | 1010.9 |
| 20260505153021 | 75 | 52 | 0.9 | 1.7 | 0.00 | 0.00 | 0.00 | 90 | 1011.1 |
| 20260505152518 | 75 | 172 | 0.9 | 1.7 | 0.00 | 0.00 | 0.00 | 89 | 1010.9 |
| 20260505152013 | 74 | 74 | 1.7 | 1.7 | 0.00 | 0.00 | 0.00 | 90 | 1010.9 |
| 20260505151508 | 74 | 108 | 0.0 | 0.9 | 0.00 | 0.00 | 0.00 | 90 | 1010.9 |
| 20260505151006 | 74 | 19 | 0.9 | 1.7 | 0.00 | 0.00 | 0.00 | 90 | 1010.7 |
| 20260505150502 | 74 | 73 | 0.0 | 0.9 | 0.00 | 0.00 | 0.00 | 89 | 1010.8 |
| 20260505140432 | 73 | 73 | 0.0 | 0.9 | 0.00 | 0.00 | 0.00 | 91 | 1010.3 |
| 20260505124846 | 71 | 70 | 0.0 | 1.7 | 0.00 | 0.00 | 0.00 | 92 | 1010.0 |
| 20260505124343 | 71 | 126 | 0.9 | 2.6 | 0.00 | 0.00 | 0.00 | 92 | 1009.8 |
| 20260505123839 | 71 | 75 | 0.9 | 5.2 | 0.00 | 0.00 | 0.00 | 92 | 1010.0 |
| 20260505123336 | 71 | 143 | 0.9 | 1.7 | 0.00 | 0.00 | 0.00 | 92 | 1010.0 |
| 20260505122832 | 71 | 77 | 0.0 | 0.9 | 0.00 | 0.00 | 0.00 | 92 | 1010.1 |
| 20260505122329 | 71 | 75 | 0.9 | 2.6 | 0.00 | 0.00 | 0.00 | 92 | 1010.1 |
| 20260505121826 | 71 | 274 | 1.7 | 1.7 | 0.00 | 0.00 | 0.00 | 92 | 1010.2 |
| 20260505121323 | 71 | 76 | 0.9 | 0.9 | 0.00 | 0.00 | 0.00 | 92 | 1009.7 |
| 20260505120819 | 71 | 82 | 0.9 | 0.9 | 0.00 | 0.00 | 0.00 | 92 | 1009.5 |
| 20260505120315 | 71 | 87 | 1.7 | 1.7 | 0.00 | 0.00 | 0.00 | 92 | 1009.7 |
| 20260505115813 | 70 | 71 | 0.9 | 1.7 | 0.00 | 0.00 | 0.00 | 92 | 1009.7 |
| 20260505115311 | 70 | 119 | 0.9 | 2.6 | 0.00 | 0.00 | 0.00 | 92 | 1009.6 |
| 20260505114809 | 70 | 72 | 0.9 | 0.9 | 0.00 | 0.00 | 0.00 | 92 | 1009.8 |
| 20260505114305 | 71 | 90 | 0.0 | 1.7 | 0.00 | 0.00 | 0.00 | 92 | 1009.8 |
| 20260505113801 | 71 | 71 | 0.9 | 1.7 | 0.00 | 0.00 | 0.00 | 92 | 1009.7 |
| 20260505113258 | 71 | 74 | 0.9 | 1.7 | 0.00 | 0.00 | 0.00 | 92 | 1009.6 |
| 20260505112754 | 71 | 70 | 0.9 | 1.7 | 0.00 | 0.00 | 0.00 | 91 | 1009.6 |
| 20260505112252 | 71 | 75 | 0.9 | 2.6 | 0.00 | 0.00 | 0.00 | 91 | 1009.8 |
| 20260505111752 | 71 | 79 | 0.9 | 1.7 | 0.00 | 0.00 | 0.00 | 91 | 1009.7 |
| 20260505111248 | 70 | 85 | 0.9 | 1.7 | 0.00 | 0.00 | 0.00 | 91 | 1009.6 |
| 20260505110744 | 70 | 84 | 0.9 | 1.7 | 0.00 | 0.00 | 0.00 | 91 | 1009.6 |
| 20260505110242 | 70 | 62 | 0.9 | 0.9 | 0.00 | 0.00 | 0.00 | 91 | 1009.5 |
| 20260505102217 | 70 | 83 | 0.0 | 1.7 | 0.00 | 0.00 | 0.00 | 92 | 1009.5 |
| 20260505101716 | 70 | 73 | 0.0 | 1.7 | 0.00 | 0.00 | 0.00 | 92 | 1009.3 |
| 20260505101212 | 70 | 37 | 0.0 | 2.6 | 0.00 | 0.00 | 0.00 | 92 | 1009.8 |
| 20260505100708 | 70 | 81 | 0.9 | 2.6 | 0.00 | 0.00 | 0.00 | 92 | 1009.7 |
| 20260505100206 | 70 | 98 | 0.9 | 3.5 | 0.00 | 0.00 | 0.00 | 92 | 1009.9 |
| 20260505095701 | 70 | 91 | 0.0 | 1.7 | 0.00 | 0.00 | 0.00 | 92 | 1009.6 |
| 20260505095159 | 70 | 122 | 1.7 | 3.5 | 0.00 | 0.00 | 0.00 | 92 | 1009.7 |
| 20260505094654 | 70 | 76 | 0.0 | 1.7 | 0.00 | 0.00 | 0.00 | 92 | 1009.7 |
| 20260505094151 | 70 | 10 | 0.9 | 3.5 | 0.00 | 0.00 | 0.00 | 92 | 1009.8 |
| 20260505093647 | 70 | 113 | 0.9 | 1.7 | 0.00 | 0.00 | 0.00 | 92 | 1009.7 |
| 20260505093145 | 70 | 72 | 0.0 | 0.9 | 0.00 | 0.00 | 0.00 | 92 | 1009.9 |
| 20260505092642 | 69 | 52 | 1.7 | 1.7 | 0.00 | 0.00 | 0.00 | 92 | 1009.7 |
| 20260505092141 | 69 | 161 | 0.9 | 1.7 | 0.00 | 0.00 | 0.00 | 92 | 1009.8 |
| 20260505091637 | 69 | 64 | 0.0 | 0.9 | 0.00 | 0.00 | 0.00 | 92 | 1009.8 |
| 20260505091135 | 69 | 69 | 0.0 | 1.7 | 0.00 | 0.00 | 0.00 | 92 | 1009.9 |
| 20260505090632 | 69 | 91 | 1.7 | 2.6 | 0.00 | 0.00 | 0.00 | 92 | 1009.9 |
| 20260505090131 | 69 | 30 | 0.0 | 0.9 | 0.00 | 0.00 | 0.00 | 91 | 1009.8 |
| 20260505085628 | 69 | 89 | 0.0 | 1.7 | 0.00 | 0.00 | 0.00 | 91 | 1009.8 |
| 20260505085126 | 69 | 86 | 0.0 | 1.7 | 0.00 | 0.00 | 0.00 | 91 | 1009.9 |
| 20260505084623 | 69 | 127 | 0.9 | 1.7 | 0.00 | 0.00 | 0.00 | 91 | 1010.2 |
| 20260505084122 | 69 | 64 | 0.0 | 0.9 | 0.00 | 0.00 | 0.00 | 91 | 1010.4 |
| 20260505083619 | 69 | 86 | 0.9 | 0.9 | 0.00 | 0.00 | 0.00 | 91 | 1010.3 |
| 20260505083115 | 69 | 61 | 0.0 | 0.9 | 0.00 | 0.00 | 0.00 | 91 | 1010.3 |
| 20260505082611 | 69 | 72 | 0.9 | 0.9 | 0.00 | 0.00 | 0.00 | 91 | 1010.4 |
| 20260505082108 | 69 | 99 | 1.7 | 2.6 | 0.00 | 0.00 | 0.00 | 91 | 1010.6 |
| 20260505081604 | 69 | 85 | 0.0 | 3.5 | 0.00 | 0.00 | 0.00 | 90 | 1010.6 |
| 20260505081102 | 69 | 90 | 1.7 | 2.6 | 0.00 | 0.00 | 0.00 | 90 | 1010.7 |
| 20260505080557 | 69 | 77 | 1.7 | 1.7 | 0.00 | 0.00 | 0.00 | 90 | 1010.7 |
| 20260505080054 | 69 | 79 | 0.9 | 1.7 | 0.00 | 0.00 | 0.00 | 90 | 1010.8 |
| 20260505075550 | 69 | 105 | 0.9 | 3.5 | 0.00 | 0.00 | 0.00 | 90 | 1010.9 |
| 20260505075047 | 69 | 102 | 0.9 | 0.9 | 0.00 | 0.00 | 0.00 | 90 | 1011.0 |
| 20260505074544 | 69 | 157 | 1.7 | 1.7 | 0.00 | 0.00 | 0.00 | 90 | 1010.7 |
| 20260505074042 | 69 | 78 | 0.0 | 0.9 | 0.00 | 0.00 | 0.00 | 89 | 1010.7 |
| 20260505073539 | 69 | 120 | 0.9 | 1.7 | 0.00 | 0.00 | 0.00 | 89 | 1010.8 |
| 20260505073038 | 69 | 85 | 0.9 | 1.7 | 0.00 | 0.00 | 0.00 | 89 | 1010.9 |
| 20260505072533 | 69 | 70 | 0.9 | 3.5 | 0.00 | 0.00 | 0.00 | 89 | 1010.9 |
| 20260505072029 | 69 | 66 | 0.0 | 1.7 | 0.00 | 0.00 | 0.00 | 89 | 1011.0 |
| 20260505071524 | 69 | 69 | 0.9 | 0.9 | 0.00 | 0.00 | 0.00 | 89 | 1010.8 |
| 20260505071023 | 69 | 60 | 0.0 | 0.9 | 0.00 | 0.00 | 0.00 | 89 | 1011.0 |
| 20260505070520 | 69 | 88 | 2.6 | 2.6 | 0.00 | 0.00 | 0.00 | 89 | 1011.2 |
| 20260505070016 | 69 | 97 | 0.9 | 1.7 | 0.00 | 0.00 | 0.00 | 89 | 1011.4 |
| 20260505065512 | 69 | 79 | 0.0 | 0.9 | 0.00 | 0.00 | 0.00 | 89 | 1011.3 |
| 20260505065008 | 69 | 86 | 0.9 | 3.5 | 0.00 | 0.00 | 0.00 | 89 | 1011.6 |
| 20260505064505 | 69 | 63 | 0.9 | 0.9 | 0.00 | 0.00 | 0.00 | 88 | 1011.6 |
| 20260505064004 | 69 | 190 | 1.7 | 3.5 | 0.00 | 0.00 | 0.00 | 88 | 1011.5 |
| 20260505063500 | 69 | 103 | 2.6 | 3.5 | 0.00 | 0.00 | 0.00 | 88 | 1011.5 |
| 20260505062956 | 69 | 71 | 0.9 | 0.9 | 0.00 | 0.00 | 0.00 | 88 | 1011.4 |
| 20260505062453 | 69 | 102 | 1.7 | 2.6 | 0.00 | 0.00 | 0.00 | 88 | 1011.7 |
| 20260505061950 | 70 | 113 | 0.0 | 0.9 | 0.00 | 0.00 | 0.00 | 87 | 1011.7 |
| 20260505061448 | 70 | 71 | 0.0 | 2.6 | 0.00 | 0.00 | 0.00 | 87 | 1011.6 |
| 20260505060946 | 70 | 79 | 0.9 | 2.6 | 0.00 | 0.00 | 0.00 | 87 | 1011.6 |
| 20260505060443 | 70 | 53 | 0.9 | 3.5 | 0.00 | 0.00 | 0.00 | 87 | 1011.6 |
| 20260505055939 | 70 | 131 | 0.9 | 3.5 | 0.00 | 0.00 | 0.00 | 87 | 1011.5 |
| 20260505055435 | 70 | 81 | 0.0 | 0.9 | 0.00 | 0.00 | 0.00 | 87 | 1011.3 |
| 20260505054932 | 70 | 81 | 1.7 | 1.7 | 0.00 | 0.00 | 0.00 | 86 | 1011.5 |
| 20260505054429 | 70 | 71 | 0.0 | 1.7 | 0.00 | 0.00 | 0.00 | 86 | 1011.5 |
| 20260505053927 | 70 | 71 | 0.0 | 2.6 | 0.00 | 0.00 | 0.00 | 86 | 1011.5 |
| 20260505053424 | 70 | 106 | 0.9 | 2.6 | 0.00 | 0.00 | 0.00 | 85 | 1011.6 |
| 20260505052921 | 70 | 67 | 1.7 | 7.0 | 0.00 | 0.00 | 0.00 | 85 | 1011.6 |
| 20260505052418 | 70 | 107 | 0.9 | 5.2 | 0.00 | 0.00 | 0.00 | 85 | 1011.5 |
| 20260505051915 | 71 | 78 | 0.0 | 3.5 | 0.00 | 0.00 | 0.00 | 85 | 1011.4 |
| 20260505051412 | 71 | 42 | 1.7 | 6.1 | 0.00 | 0.00 | 0.00 | 84 | 1011.3 |
| 20260505050910 | 71 | 66 | 0.0 | 5.2 | 0.00 | 0.00 | 0.00 | 84 | 1011.5 |
| 20260505050408 | 71 | 102 | 0.9 | 1.7 | 0.00 | 0.00 | 0.00 | 84 | 1011.6 |
| 20260505041336 | 72 | 113 | 1.7 | 1.7 | 0.00 | 0.00 | 0.00 | 81 | 1011.8 |
| 20260505040833 | 72 | 60 | 0.9 | 2.6 | 0.00 | 0.00 | 0.00 | 81 | 1011.8 |
| 20260505040330 | 72 | 182 | 1.7 | 2.6 | 0.00 | 0.00 | 0.00 | 80 | 1011.9 |
| 20260505035827 | 72 | 85 | 0.0 | 3.5 | 0.00 | 0.00 | 0.00 | 80 | 1011.8 |
| 20260505035323 | 72 | 103 | 0.0 | 7.8 | 0.00 | 0.00 | 0.00 | 80 | 1011.8 |
| 20260505034821 | 72 | 71 | 0.9 | 1.7 | 0.00 | 0.00 | 0.00 | 80 | 1011.7 |
| 20260505034317 | 72 | 79 | 0.0 | 1.7 | 0.00 | 0.00 | 0.00 | 79 | 1011.7 |
| 20260505033814 | 73 | 118 | 1.7 | 2.6 | 0.00 | 0.00 | 0.00 | 79 | 1011.5 |
| 20260505033311 | 73 | 92 | 1.7 | 2.6 | 0.00 | 0.00 | 0.00 | 79 | 1011.7 |
| 20260505032809 | 73 | 107 | 2.6 | 3.5 | 0.00 | 0.00 | 0.00 | 79 | 1011.6 |
| 20260505032305 | 73 | 68 | 0.9 | 3.5 | 0.00 | 0.00 | 0.00 | 79 | 1011.7 |
| 20260505031803 | 73 | 68 | 0.9 | 2.6 | 0.00 | 0.00 | 0.00 | 79 | 1011.7 |
| 20260505031259 | 73 | 88 | 0.9 | 1.7 | 0.00 | 0.00 | 0.00 | 79 | 1011.7 |
| 20260505030756 | 73 | 101 | 1.7 | 2.6 | 0.00 | 0.00 | 0.00 | 79 | 1011.8 |
| 20260505030252 | 73 | 60 | 0.9 | 3.5 | 0.00 | 0.00 | 0.00 | 78 | 1011.5 |
| 20260505025747 | 73 | 68 | 1.7 | 3.5 | 0.00 | 0.00 | 0.00 | 78 | 1011.8 |
| 20260505025246 | 73 | 91 | 0.9 | 2.6 | 0.00 | 0.00 | 0.00 | 78 | 1011.7 |
| 20260505024744 | 74 | 88 | 0.9 | 1.7 | 0.00 | 0.00 | 0.00 | 78 | 1011.8 |
| 20260505024241 | 74 | 74 | 0.0 | 0.9 | 0.00 | 0.00 | 0.00 | 77 | 1011.7 |
| 20260505023738 | 74 | 178 | 0.9 | 2.6 | 0.00 | 0.00 | 0.00 | 76 | 1011.7 |
| 20260505023235 | 74 | 81 | 0.9 | 2.6 | 0.00 | 0.00 | 0.00 | 76 | 1011.6 |
| 20260505022733 | 74 | 114 | 1.7 | 3.5 | 0.00 | 0.00 | 0.00 | 76 | 1011.7 |
| 20260505022230 | 74 | 165 | 1.7 | 1.7 | 0.00 | 0.00 | 0.00 | 76 | 1011.4 |
| 20260505021726 | 74 | 94 | 0.9 | 6.1 | 0.00 | 0.00 | 0.00 | 76 | 1011.6 |
| 20260505021223 | 75 | 79 | 0.9 | 1.7 | 0.00 | 0.00 | 0.00 | 76 | 1011.5 |
| 20260505020719 | 75 | 128 | 1.7 | 3.5 | 0.00 | 0.00 | 0.00 | 75 | 1011.6 |
| 20260505020214 | 75 | 98 | 0.9 | 1.7 | 0.00 | 0.00 | 0.00 | 75 | 1011.6 |
| 20260505015712 | 75 | 115 | 1.7 | 2.6 | 0.00 | 0.00 | 0.00 | 75 | 1011.4 |
| 20260505015209 | 75 | 80 | 0.9 | 1.7 | 0.00 | 0.00 | 0.00 | 75 | 1011.1 |
| 20260505014706 | 75 | 69 | 0.9 | 2.6 | 0.00 | 0.00 | 0.00 | 74 | 1011.2 |
| 20260505014203 | 75 | 79 | 0.0 | 3.5 | 0.00 | 0.00 | 0.00 | 74 | 1011.2 |
| 20260505013700 | 76 | 78 | 1.7 | 2.6 | 0.00 | 0.00 | 0.00 | 73 | 1011.0 |
| 20260505013157 | 76 | 66 | 0.0 | 1.7 | 0.00 | 0.00 | 0.00 | 73 | 1011.3 |
| 20260505012655 | 76 | 105 | 1.7 | 2.6 | 0.00 | 0.00 | 0.00 | 72 | 1011.0 |
| 20260505012152 | 76 | 59 | 0.0 | 2.6 | 0.00 | 0.00 | 0.00 | 72 | 1011.2 |
| 20260505011652 | 76 | 106 | 0.9 | 1.7 | 0.00 | 0.00 | 0.00 | 71 | 1011.2 |
| 20260505011150 | 77 | 71 | 2.6 | 3.5 | 0.00 | 0.00 | 0.00 | 70 | 1011.1 |
| 20260505010645 | 77 | 106 | 1.7 | 3.5 | 0.00 | 0.00 | 0.00 | 70 | 1011.1 |
| 20260505010142 | 77 | 152 | 0.9 | 2.6 | 0.00 | 0.00 | 0.00 | 70 | 1010.9 |
| 20260505005638 | 77 | 71 | 0.0 | 1.7 | 0.00 | 0.00 | 0.00 | 70 | 1011.1 |
| 20260505005135 | 77 | 129 | 0.9 | 1.7 | 0.00 | 0.00 | 0.00 | 70 | 1010.9 |
| 20260505004632 | 77 | 65 | 0.9 | 0.9 | 0.00 | 0.00 | 0.00 | 70 | 1011.0 |
| 20260505004129 | 77 | 71 | 1.7 | 6.1 | 0.00 | 0.00 | 0.00 | 69 | 1011.1 |
| 20260505003626 | 77 | 86 | 0.9 | 5.2 | 0.00 | 0.00 | 0.00 | 69 | 1011.2 |
| 20260505003123 | 78 | 146 | 2.6 | 3.5 | 0.00 | 0.00 | 0.00 | 69 | 1011.0 |
| 20260505002619 | 78 | 77 | 0.9 | 1.7 | 0.00 | 0.00 | 0.00 | 68 | 1011.2 |
| 20260505002118 | 78 | 127 | 1.7 | 7.0 | 0.00 | 0.00 | 0.00 | 68 | 1011.4 |
| 20260505001614 | 78 | 100 | 0.9 | 1.7 | 0.00 | 0.00 | 0.00 | 68 | 1011.1 |
| 20260505001112 | 78 | 134 | 0.9 | 1.7 | 0.00 | 0.00 | 0.00 | 68 | 1011.3 |
| 20260505000609 | 78 | 84 | 0.0 | 0.9 | 0.00 | 0.00 | 0.00 | 67 | 1011.1 |
| 20260505000107 | 78 | 81 | 0.9 | 2.6 | 0.00 | 0.00 | 0.00 | 66 | 1011.1 |
| 20260504235603 | 79 | 73 | 0.9 | 2.6 | 0.00 | 0.00 | 0.00 | 66 | 1011.3 |
| 20260504235059 | 79 | 137 | 1.7 | 2.6 | 0.00 | 0.00 | 0.00 | 66 | 1011.4 |
| 20260504234557 | 79 | 97 | 0.9 | 5.2 | 0.00 | 0.00 | 0.00 | 65 | 1011.3 |
| 20260504234054 | 79 | 79 | 0.9 | 2.6 | 0.00 | 0.00 | 0.00 | 65 | 1011.4 |
| 20260504233549 | 79 | 73 | 0.9 | 2.6 | 0.00 | 0.00 | 0.00 | 64 | 1011.4 |
| 20260504233046 | 79 | 128 | 0.9 | 3.5 | 0.00 | 0.00 | 0.00 | 64 | 1011.4 |
| 20260504232543 | 79 | 51 | 1.7 | 2.6 | 0.00 | 0.00 | 0.00 | 63 | 1011.5 |
| 20260504232041 | 80 | 119 | 2.6 | 6.1 | 0.00 | 0.00 | 0.00 | 62 | 1011.3 |
| 20260504231537 | 80 | 114 | 2.6 | 5.2 | 0.00 | 0.00 | 0.00 | 62 | 1011.4 |
| 20260504231033 | 81 | 116 | 1.7 | 5.2 | 0.00 | 0.00 | 0.00 | 62 | 1011.4 |
| 20260504230530 | 81 | 173 | 2.6 | 5.2 | 0.00 | 0.00 | 0.00 | 60 | 1011.4 |
| 20260504230029 | 82 | 72 | 1.7 | 5.2 | 0.00 | 0.00 | 0.00 | 60 | 1011.6 |
| 20260504225525 | 82 | 59 | 0.9 | 3.5 | 0.00 | 0.00 | 0.00 | 60 | 1011.7 |
| 20260504225022 | 81 | 27 | 2.6 | 5.2 | 0.00 | 0.00 | 0.00 | 60 | 1011.6 |
| 20260504224519 | 81 | 115 | 0.9 | 3.5 | 0.00 | 0.00 | 0.00 | 60 | 1011.7 |
| 20260504224016 | 81 | 112 | 0.9 | 1.7 | 0.00 | 0.00 | 0.00 | 60 | 1011.8 |
| 20260504223513 | 81 | 77 | 0.9 | 6.1 | 0.00 | 0.00 | 0.00 | 60 | 1011.9 |
| 20260504223009 | 82 | 99 | 4.3 | 7.8 | 0.00 | 0.00 | 0.00 | 57 | 1011.9 |
| 20260504222506 | 83 | 74 | 0.0 | 5.2 | 0.00 | 0.00 | 0.00 | 59 | 1011.9 |
| 20260504222003 | 82 | 94 | 0.0 | 2.6 | 0.00 | 0.00 | 0.00 | 59 | 1011.6 |
| 20260504221500 | 81 | 99 | 1.7 | 2.6 | 0.00 | 0.00 | 0.00 | 60 | 1011.7 |
| 20260504220957 | 81 | 64 | 1.7 | 7.0 | 0.00 | 0.00 | 0.00 | 60 | 1011.8 |
| 20260504220453 | 81 | 86 | 1.7 | 3.5 | 0.00 | 0.00 | 0.00 | 60 | 1012.0 |
| 20260504215950 | 81 | 102 | 1.7 | 3.5 | 0.00 | 0.00 | 0.00 | 59 | 1012.1 |
| 20260504215447 | 80 | 72 | 0.9 | 3.5 | 0.00 | 0.00 | 0.00 | 62 | 1012.2 |
| 20260504214944 | 80 | 73 | 0.9 | 1.7 | 0.00 | 0.00 | 0.00 | 61 | 1012.0 |
| 20260504214440 | 81 | 111 | 1.7 | 5.2 | 0.00 | 0.00 | 0.00 | 59 | 1012.2 |
| 20260504213937 | 81 | 106 | 1.7 | 5.2 | 0.00 | 0.00 | 0.00 | 58 | 1012.3 |
| 20260504213433 | 81 | 130 | 0.9 | 1.7 | 0.00 | 0.00 | 0.00 | 61 | 1012.5 |
| 20260504212931 | 81 | 70 | 0.0 | 5.2 | 0.00 | 0.00 | 0.00 | 59 | 1012.6 |
| 20260504212426 | 81 | 75 | 1.7 | 2.6 | 0.00 | 0.00 | 0.00 | 57 | 1012.7 |